Starlink 2588

operational
NORAD ID: 48398 Int'l Des: 2021-038 Owner: SPXS Country: US Constellation: starlink
LEOCIRCULAR

关于 Starlink 2588

正在加载描述...

实时位置

正在加载3D地球...

即将过境

高度历史

Altitude vs Time

uPlot chart will show altitude changes over time

两行轨道根数

1 48398U 21038AX 26062.08003253 .00039527 00000-0 21242-2 0 9992
2 48398 53.0760 8.9349 0005891 89.8912 270.2756 15.14528149267563
Epoch: Mar 3, 2026 • Age: 23 hours

当前状态

高度 524.6 km
速度 7.61 km/s
星下点 52.48°N, 63.1°W
发射日期 May 4, 2021
运行时间 4.8 years
类型 internet

技术详情

分类 Payload
质量 260.00 kg
干质量 248.00 kg
总质量 260.00 kg
长度 0.20 m
直径 2.80 m
跨度 9.00 m
形状 Box + pan
制造商 SPXS
平台类型 Starlink
阶段状态 In Orbit
所有者/国家 SPXS/US

大型星座

Loading constellations...